Regional Weather Roundup
Issued by NWS

Home | Current Version | Previous Version | Graphics & Text | Print | Product List | Glossary On
Versions: 1 2 3 4 5 6 7 8 9 10 11 12 13 14 15 16 17 18 19 20 21 22 23 24 25 26 27 28 29 30 31 32 33 34 35 36 37 38 39 40 41 42 43 44 45 46 47 48 49 50
197
ASUS43 KMPX 141710
RWRMN
WEATHER ROUNDUP FOR MINNESOTA
NATIONAL WEATHER SERVICE TWIN CITIES/CHANHASSEN MN
1100 AM CST THU DEC 14 2017


NOTE: "FAIR" INDICATES FEW OR NO CLOUDS BELOW 12,000 FEET WITH NO
SIGNIFICANT WEATHER AND/OR OBSTRUCTIONS TO VISIBILITY. N/A MEANS
CURRENT SKY AND/OR WEATHER CONDITIONS ARE NOT AVAILABLE.

MNZ060>063-068>070-141800-
   Twin Cities Metro

CITY           SKY/WX    TMP DP  RH WIND       PRES   REMARKS
TWIN CITIES    FLURRIES  20  15  81 SW5       30.05F WCI  13
ST PAUL        CLOUDY    20  15  81 SW7       30.06F WCI  11
CRYSTAL        CLOUDY    20  13  74 SW5       30.03F WCI  13
BLAINE         CLOUDY    21  16  79 SW3       30.03F
LAKEVILLE      CLOUDY    18  16  93 CALM      30.04F
EDEN PRAIRIE   CLOUDY    18  14  84 SW3       30.04F
SOUTH ST PAUL  CLOUDY    21  15  79 SW6       30.05F WCI  13
LAKE ELMO      FLURRIES  21  18  86 SW7       30.04F WCI  13
$$
MNZ001>005-007-008-013>017-022>024-027-028-141800-
   Northwest Minnesota

CITY           SKY/WX    TMP DP  RH WIND       PRES   REMARKS
BEMIDJI        FLURRIES  16  12  86 NW14G21   29.99R WCI   1
HALLOCK        CLOUDY    18  12  79 N14       30.08R WCI   4
ROSEAU         LGT SNOW  14   9  79 NW8       30.03S WCI   3
WARROAD        LGT SNOW  12   9  85 W10       30.01F WCI  -1
THIEF RVR FALL FLURRIES  18  13  80 NW15      30.04S WCI   4
CROOKSTON      CLOUDY    19  18  93 N20       30.08R FOG     WCI   4
FOSSTON        LGT SNOW  16  12  86 NW12      30.03R WCI   3
DETROIT LAKES  LGT SNOW  21  19  93 NW12      30.03R WCI   9
MOORHEAD       MIX PCPN  21  18  86 CALM      30.08S
PARK RAPIDS    LGT SNOW  18  14  84 NW8       29.99R FOG     WCI   8
MAHNOMEN       CLOUDY    18  15  86 NW12      30.03S WCI   6
$$
MNZ006-009>011-018-025>026-141800-
   North Central Minnesota

CITY           SKY/WX    TMP DP  RH WIND       PRES   REMARKS
BAUDETTE       CLOUDY    11   7  84 NW9       29.99R WCI  -2
FLAG ISLAND    LGT SNOW   9   5  85 NW8       29.99S WCI  -4
INTL FALLS     SUNNY     14   7  73 VRB6      29.96S WCI   5
WASKISH        LGT SNOW  14  10  85 NW10      29.99S WCI   1
BIG FORK       FLURRIES  16  10  79 W3        29.96S
LONGVILLE      FLURRIES  18  10  73 W6        29.99R WCI   9
GRAND RAPIDS   FLURRIES  17  11  77 NW6       29.99S WCI   9
CRANE LAKE     MOSUNNY   14   9  79 CALM      29.98S
ORR            FLURRIES  12   7  79 CALM      29.93S
COOK           LGT SNOW  12   9  85 W3        29.95F
WALKER         FLURRIES  16  12  86 W7        29.99R WCI   6
$$
MNZ012-019>021-037-141800-
   Northeast Minnesota

CITY           SKY/WX    TMP DP  RH WIND       PRES   REMARKS
DULUTH         LGT SNOW  15  11  83 NW8       29.95S FOG     WCI   4
ELY            LGT SNOW  14   9  79 W6        29.93S WCI   5
HIBBING        LGT SNOW  13   8  81 W3        29.95F
EVELETH        LGT SNOW  12   6  74 W6        29.96S WCI   3
DULUTH HARBOR  LGT SNOW  19  16  86 W9        30.02S WCI   9
TWO HARBORS    FLURRIES  21  16  79 W5        29.95S WCI  15
SILVER BAY     FLURRIES  18  12  79 CALM      29.93
GRAND MARAIS     N/A     20  12  71 VRB3      29.97F
G MARAIS ARPRT LGT SNOW  12   7  79 W3        29.87S
$$
MNZ029>031-032-039>041-046>048-054>057-064-141800-
   West Central Minnesota

CITY           SKY/WX    TMP DP  RH WIND       PRES   REMARKS
FERGUS FALLS   CLOUDY    19  18  93 NW8       30.09R WCI   9
WHEATON        CLOUDY    23  19  86 CALM      30.09R
MORRIS         CLOUDY    23  19  86 N6        30.05R WCI  16
ALEXANDRIA     CLOUDY    19  15  84 NW9       30.03R WCI   8
ELBOW LAKE     CLOUDY    20  18  94 W8        30.06R WCI  10
WADENA         CLOUDY    18  14  86 W7        30.01R WCI   8
GLENWOOD       CLOUDY    18  16  93 NW9       30.03S WCI   6
APPLETON         N/A     25  19  80 N5        30.07R WCI  19
BENSON         CLOUDY    23  18  80 N8        30.07R WCI  14
ORTONVILLE     CLOUDY    23  19  86 CALM      30.06R
MADISON        FLURRIES  27  21  80 CALM      30.07R
WILLMAR        CLOUDY    21  18  86 NW10      30.05R WCI  10
$$
MNZ033>034-036-042>043-049>051-058-059-141800-
   Central Minnesota

CITY           SKY/WX    TMP DP  RH WIND       PRES   REMARKS
ST CLOUD       CLOUDY    19  16  88 NW7       30.03R WCI  10
SAUK CENTRE    LGT SNOW  17  14  86 NW10      30.03S WCI   5
PAYNESVILLE    CLOUDY    19  17  94 W9        30.04S WCI   8
AITKIN         LGT SNOW  16  10  79 W6        29.99S WCI   7
PINE RIVER     LGT SNOW  16  10  79 NW5       30.03S WCI   9
BRAINERD       CLOUDY    17  11  77 NW6       30.01S WCI   9
STAPLES        CLOUDY    18  12  79 NW5       30.01R WCI  11
LONG PRAIRIE   LGT SNOW  18  14  86 W7        30.03R WCI   8
LITTLE FALLS   FLURRIES  19  12  73 W3        30.03S
LITCHFIELD     CLOUDY    19  18  93 NW7       30.04R WCI  10
BUFFALO        CLOUDY    19  15  82 W5        30.05S WCI  13
MAPLE LAKE     CLOUDY    21  18  88 SW5       30.04S WCI  14
HUTCHINSON     CLOUDY    21  18  88 W7        30.04F WCI  12
$$
MNZ037-044-045-052-053-141800-
   East Central Minnesota

CITY           SKY/WX    TMP DP  RH WIND       PRES   REMARKS
PRINCETON      CLOUDY    19  16  86 CALM      30.02S
MORA           CLOUDY    18  12  79 W7        30.03S WCI   8
CAMBRIDGE      CLOUDY    19  12  73 W3        30.03S
RUSH CITY      CLOUDY    18  13  83 W5        30.03S WCI  11
MOOSE LAKE     LGT SNOW  18  12  79 W3        29.99S
HINCKLEY       CLOUDY    19  14  79 W9        30.01S WCI   9
CLOQUET        LGT SNOW  16  10  79 NW6       29.97S WCI   7
MCGREGOR       CLOUDY    18  12  79 W3        29.99F
$$
MNZ071>073-080-081-089-090-097-098-141800-
   Southwest Minnesota

CITY           SKY/WX    TMP DP  RH WIND       PRES   REMARKS
MONTEVIDEO     CLOUDY    25  21  86 N9        30.06R WCI  15
GRANITE FALLS  CLOUDY    26  22  83 W7        30.07R WCI  18
CANBY          CLOUDY    27  23  84 N3        30.07R
MARSHALL       CLOUDY    27  21  78 W3        30.06R
REDWOOD FALLS  CLOUDY    23  17  78 NW5       30.05S WCI  17
OLIVIA         CLOUDY    23  19  86 NW10      30.04R WCI  12
PIPESTONE      CLOUDY    28  27  93 W7        30.02R WCI  21
WINDOM           N/A     25  12  58 SW7       30.03R WCI  17
WORTHINGTON    CLOUDY    27  23  85 SW9       30.03R WCI  18
JACKSON        PTSUNNY   27  21  80 MISG      30.02F
TRACY          CLOUDY    28  25  86 NW6       30.03R WCI  22
SLAYTON        CLOUDY    29  25  83 NW12      30.03R WCI  20
$$
MNZ065>067-074>077-082>085-091>093-141800-
   South Central Minnesota

CITY           SKY/WX    TMP DP  RH WIND       PRES   REMARKS
MANKATO        CLOUDY    20  16  84 SW5       30.05F WCI  13
NEW ULM        CLOUDY    21  18  86 NW8       30.05S WCI  12
ST JAMES       CLOUDY    21  18  86 W7        30.06S WCI  13
FAIRMONT       CLOUDY    23  18  81 W7        30.05S WCI  15
GLENCOE        CLOUDY    21  18  87 SW3       30.04S
FARIBAULT      LGT SNOW  18  16  93 CALM      30.05S
OWATONNA       CLOUDY    19  18  93 SW7       30.03F WCI  10
WASECA         CLOUDY    19  18  93 S3        30.06S
ALBERT LEA     SUNNY     21  16  79 SW3       30.04S
$$
MNZ078>079-086>088-094>096-141800-
   Southeast Minnesota

CITY           SKY/WX    TMP DP  RH WIND       PRES   REMARKS
ROCHESTER      SUNNY     24  18  77 SW6       30.03F WCI  17
RED WING       SUNNY     21  12  68 SW3       30.05F
STANTON        CLOUDY    21  17  83 SW3       30.04S
DODGE CENTER   SUNNY     19  16  86 SW8       30.02F WCI   9
WINONA         PTSUNNY   23  18  80 CALM      30.08F
AUSTIN         SUNNY     19  18  93 SW3       30.04F
PRESTON        SUNNY     21  15  77 S6        30.04F WCI  13
$$
ABBREVIATIONS USED IN REMARKS
   TC - TEMPERATURES IN CELSIUS
  WCI - WIND CHILL INDEX
   HX - HEAT INDEX
  VSB - VISIBILITY
$$




USA.gov is the U.S. government's official web portal to all federal, state and local government web resources and services.